Location: Songkhla
(7.2000°N, 100.6000°E)
Time: 15:46:38
(UTC+07:00)

AO-109 - All Passes

Search period start: 14 April 2024 00:00
Search period end: 24 April 2024 00:00
Orbit: 269 x 275 km, 60.7° (Epoch: 14 April)

Date Brightness Start Highest point End Pass type
(mag) Time Alt. Az. Time Alt. Az. Time Alt. Az.
14 Apr - 07:21:40 10° S 07:23:54 35° ESE 07:26:08 10° NE daylight
14 Apr - 18:32:00 10° N 18:33:59 23° ENE 18:35:58 10° ESE daylight
15 Apr - 07:20:37 10° SSW 07:22:58 66° WNW 07:25:17 10° NNE daylight
15 Apr - 18:30:05 10° NNW 18:32:25 71° ENE 18:34:44 10° SSE daylight
16 Apr - 07:18:41 10° WSW 07:20:36 22° WNW 07:22:31 10° N daylight
16 Apr - 18:27:12 10° NW 18:29:24 36° WSW 18:31:35 10° S daylight
17 Apr - 07:16:18 10° WNW 07:16:49 10° WNW 07:17:19 10° NW daylight
17 Apr - 18:23:23 10° WNW 18:24:57 16° WSW 18:26:31 10° SSW daylight
18 Apr - 05:38:39 10° SE 05:39:23 11° ESE 05:40:08 10° E visible
19 Apr - 05:31:03 10° S 05:32:48 21° ESE 05:34:34 10° ENE visible
19 Apr - 16:38:25 10° NNE 16:39:43 14° ENE 16:41:01 10° E daylight
20 Apr - 05:22:46 10° S 05:24:48 42° ESE 05:26:53 10° NE visible
20 Apr - 16:29:11 10° N 16:31:08 23° ENE 16:33:04 10° ESE daylight
21 Apr - 05:13:19 10° SSW 05:15:24 84° WNW 05:17:32 10° NNE visible
21 Apr - 16:18:54 10° NNW 16:21:07 42° ENE 16:23:17 10° SE daylight
22 Apr - 05:02:39 10° SW 05:04:36 39° WNW 05:06:35 10° N visible
22 Apr - 16:07:24 10° NNW 16:09:41 81° ENE 16:11:55 10° SSE daylight
23 Apr - 04:50:42 10° WSW 04:52:23 23° WNW 04:54:07 10° N visible
23 Apr - 15:54:36 10° NW 15:56:50 57° WSW 15:59:02 10° SSE daylight
